1504443600.82,51246,19.38,73170.5,10.33,0.75,-0.33,0,*67
1504443602.03,51247,19.38,73178.0,10.33,0.79,-0.33,0,*6A
1504443603.26,51248,19.38,73170.8,10.31,1.25,0.05,0,*47
1504443604.51,51249,19.38,73168.5,10.31,0.79,-0.27,0,*63
1504443605.75,51250,19.38,73170.5,10.33,1.37,0.29,0,*71
1504443606.92,51251,19.38,73172.5,10.33,1.05,0.09,0,*43
1504443608.12,51252,19.38,73168.5,10.33,1.01,0.29,0,*76
1504443609.38,51253,19.38,73170.0,10.31,1.93,1.13,0,*46
1504443610.61,51254,19.38,73172.0,10.29,1.93,1.09,0,*43
1504443611.81,51255,19.38,73172.3,10.29,1.41,0.59,0,*79
1504443613.02,51256,19.38,73172.3,10.29,2.17,1.41,0,*42
1504443614.22,51257,19.38,73174.8,10.29,2.31,1.59,0,*4E
1504443615.47,51258,19.38,73172.5,10.31,2.77,1.97,0,*48
1504443616.7,51259,19.38,73174.3,10.31,3.19,2.35,0,*4B
1504443617.95,51260,19.38,73174.8,10.31,2.69,2.05,0,*44
1504443619.21,51261,19.38,73170.8,10.31,2.55,1.93,0,*46
1504443620.46,51262,19.38,73174.0,10.31,2.89,2.17,0,*4B
1504443621.67,51263,19.38,73174.8,10.29,2.95,2.39,0,*42
1504443622.9,51264,19.38,73174.8,10.31,3.29,2.69,0,*4F
1504443624.13,51265,19.38,73172.0,10.31,2.27,1.51,0,*49
1504443625.39,51266,19.38,73172.5,10.31,1.63,0.91,0,*74
1504443626.59,51267,19.38,73172.5,10.29,2.25,1.41,0,*41
1504443627.8,51268,19.38,73168.8,10.29,2.55,1.83,0,*47
1504443629.04,51269,19.38,73170.0,10.29,3.15,2.43,0,*4C
1504443630.21,51270,19.38,73174.3,10.29,3.55,2.95,0,*4B
1504443631.42,51271,19.38,73174.3,10.29,3.75,3.25,0,*42
1504443632.66,51272,19.38,73174.8,10.31,3.79,3.29,0,*48
1504443633.9,51273,19.38,73174.3,10.31,3.71,3.25,0,*4D
1504443635.13,51274,19.38,73174.8,10.31,3.41,2.99,0,*4F
1504443636.39,51275,19.38,73174.8,10.31,3.41,3.03,0,*4C
1504443637.62,51276,19.38,73170.3,10.31,3.59,3.19,0,*4D
1504443638.85,51277,19.38,73174.0,10.31,3.37,2.91,0,*45
1504443640.09,51278,19.38,73176.3,10.31,3.03,2.35,0,*43
1504443641.3,51279,19.38,73176.0,10.33,2.91,2.17,0,*4A
1504443642.55,51280,19.38,73174.5,10.31,2.77,2.05,0,*45
1504443643.77,51281,19.38,73172.0,10.33,2.77,2.01,0,*42
1504443645.0,51282,19.38,73174.0,10.33,2.09,1.25,0,*4D
1504443646.2,51283,19.38,73172.5,10.33,2.39,1.41,0,*4D
1504443647.4,51284,19.38,73174.5,10.33,1.79,0.83,0,*72
1504443648.61,51285,19.38,73170.3,10.33,1.13,0.09,0,*4D
1504443649.86,51286,19.38,73174.0,10.31,1.47,0.47,0,*77
1504443651.08,51287,19.38,73174.0,10.29,1.67,0.67,0,*7F
1504443652.34,51288,19.38,73172.0,10.31,1.59,0.47,0,*76
1504443653.57,51289,19.38,73168.5,10.31,1.33,0.01,0,*49
1504443654.76,51290,19.38,73174.3,10.33,1.05,-0.41,0,*5F
1504443655.96,51291,19.38,73174.3,10.33,0.91,-0.53,0,*61
1504443657.16,51292,19.38,73172.5,10.33,0.91,-0.65,0,*67
1504443658.35,51293,19.38,73170.8,10.33,1.05,-0.45,0,*58
1504443659.57,51294,19.38,73174.8,10.35,0.95,-0.81,0,*69
1504443660.77,51295,19.38,73174.0,10.33,0.33,-1.51,0,*5E
1504443661.96,51296,19.38,73170.3,10.33,-0.45,-2.19,0,*7E
1504443663.13,51297,19.38,73170.3,10.33,-0.07,-1.79,0,*4C
1504443664.33,51298,19.38,73168.5,10.33,0.63,-0.69,0,*6C
1504443665.56,51299,19.38,73168.5,10.35,-0.29,-1.43,0,*71
1504443666.78,51300,19.38,73176.0,10.35,-0.41,-1.17,0,*7F
1504443668.04,51301,19.38,73172.3,10.35,-0.97,-1.43,0,*74
1504443669.26,51302,19.38,73174.8,10.35,-1.55,-1.79,0,*41
1504443670.5,51303,19.38,73174.3,10.35,-1.67,-1.39,0,*45
1504443671.75,51304,19.38,73172.5,10.37,-2.55,-1.79,0,*46
1504443672.99,51305,19.38,73170.3,10.37,-2.23,-1.39,0,*42
1504443674.25,51306,19.38,73174.8,10.37,-1.47,-0.89,0,*7A
1504443675.49,51307,19.38,73172.5,10.37,-0.93,-0.53,0,*44
1504443676.73,51308,19.38,73172.0,10.39,-1.05,-0.93,0,*77
1504443677.96,51309,19.38,73172.3,10.39,-0.89,-0.89,0,*48
1504443679.18,51310,19.38,73172.3,10.39,-0.27,-0.37,0,*41
1504443680.36,51311,19.38,73172.5,10.39,-0.19,-0.61,0,*4E
1504443681.54,51312,19.38,73168.5,10.39,-0.07,-0.65,0,*76
1504443682.73,51313,19.38,73170.5,10.39,-0.37,-0.77,0,*47
1504443683.91,51314,19.38,73174.0,10.39,0.43,-0.19,0,*66
1504443685.1,51315,19.38,73172.3,10.39,0.13,-0.61,0,*6D
1504443686.36,51316,19.38,73170.8,10.41,-0.27,-1.13,0,*7F
1504443687.62,51317,19.38,73174.3,10.41,-0.23,-1.47,0,*7B
1504443688.86,51318,19.38,73168.8,10.41,-0.69,-2.47,0,*79
1504443690.11,51319,19.38,73172.3,10.41,-1.21,-2.71,0,*40
1504443691.33,51320,19.38,73170.3,10.39,-1.01,-2.39,0,*4B
1504443692.56,51321,19.38,73172.0,10.39,-0.73,-1.99,0,*77
1504443693.78,51322,19.38,73170.5,10.39,-0.41,-2.03,0,*75
1504443695.03,51323,19.38,73172.5,10.37,-0.81,-2.75,0,*77
1504443696.27,51324,19.38,73172.5,10.39,-0.89,-2.75,0,*76
1504443697.52,51325,19.38,73168.3,10.37,-0.53,-2.51,0,*78
1504443698.74,51326,19.38,73172.3,10.37,-0.77,-2.87,0,*76
1504443699.95,51327,19.38,73174.0,10.37,-0.53,-2.91,0,*76
1504443701.16,51328,19.38,73170.8,10.35,-0.11,-2.91,0,*7D
1504443702.38,51329,19.38,73170.8,10.35,0.41,-2.27,0,*59
1504443703.61,51330,19.38,73170.8,10.35,-0.23,-3.31,0,*7E
1504443704.88,51331,19.38,73174.0,10.35,-1.91,-5.03,0,*40
1504443706.13,51332,19.38,73172.8,10.33,-1.83,-5.11,0,*45
1504443707.38,51333,19.38,73174.0,10.31,-2.75,-5.55,0,*4C
1504443708.6,51334,19.38,73170.8,10.29,-1.83,-4.25,0,*4E
1504443709.82,51335,19.38,73168.8,10.29,-1.01,-3.39,0,*4F
1504443711.05,51336,19.38,73168.8,10.31,-0.23,-2.35,0,*79
1504443712.27,51337,19.38,73170.0,10.29,1.09,-1.25,0,*67
1504443713.51,51338,19.38,73172.5,10.29,1.33,-0.89,0,*56
1504443714.75,51339,19.38,73172.5,10.31,1.01,-1.47,0,*6C
1504443715.95,51340,19.38,73170.5,10.29,0.21,-2.87,0,*57
1504443717.18,51341,19.38,73170.5,10.27,0.17,-3.07,0,*54
1504443718.39,51342,19.38,73170.0,10.27,-0.33,-3.95,0,*77
1504443719.6,51343,19.38,73172.5,10.25,-1.43,-5.35,0,*4E
1504443720.79,51344,19.38,73174.0,10.25,-0.69,-4.05,0,*72
1504443722.0,51345,19.38,73174.8,10.25,-0.93,-4.25,0,*74
1504443723.21,51346,19.38,73170.0,10.25,-1.09,-4.17,0,*44
1504443724.43,51347,19.38,73168.0,10.27,-1.33,-3.83,0,*44
1504443725.62,51348,19.38,73172.5,10.25,-2.15,-4.57,0,*40
1504443726.84,51349,19.38,73172.0,10.21,-3.23,-5.85,0,*4F
1504443728.06,51350,19.38,73168.5,10.21,-3.23,-5.65,0,*49
1504443729.31,51351,19.38,73172.3,10.21,-3.59,-5.85,0,*4B
1504443730.56,51352,19.38,73172.5,10.15,-3.79,-5.65,0,*43
1504443731.84,51353,19.38,73170.5,10.15,-3.59,-5.27,0,*46
1504443733.05,51354,19.38,73172.5,10.15,-2.83,-4.17,0,*45
1504443734.29,51355,19.38,73168.0,10.15,-1.91,-3.19,0,*4D
1504443735.51,51356,19.38,73168.8,10.15,-1.51,-3.03,0,*49
1504443736.74,51357,19.38,73172.3,10.15,-1.51,-3.47,0,*48
1504443737.99,51358,19.38,73170.0,10.13,-1.01,-2.71,0,*40
1504443739.23,51359,19.38,73168.8,10.11,-1.25,-3.43,0,*45
1504443740.45,51360,19.38,73172.3,10.13,-1.01,-2.95,0,*41
1504443741.65,51361,19.38,73168.8,10.13,-0.41,-2.39,0,*73
1504443742.83,51362,19.38,73168.8,10.13,-0.33,-2.27,0,*7A
1504443744.05,51363,19.38,73172.0,10.13,-0.19,-1.91,0,*7D
1504443745.28,51364,19.38,73170.5,10.13,0.41,-1.39,0,*58
1504443746.5,51365,19.38,73168.5,10.13,0.59,-0.93,0,*61
1504443747.7,51366,19.38,73170.5,10.13,0.09,-1.05,0,*69
1504443748.9,51367,19.38,73170.0,10.13,0.09,-0.93,0,*56
1504443750.1,51368,19.38,73174.8,10.13,0.83,-0.45,0,*60
1504443751.3,51369,19.38,73170.0,10.13,0.95,-0.29,0,*6C
1504443752.51,51370,19.38,73168.3,10.13,0.91,-0.29,0,*60
1504443753.71,51371,19.38,73170.8,10.13,0.41,-0.45,0,*66
1504443754.9,51372,19.38,73168.5,10.13,0.41,-0.29,0,*6F
1504443756.11,51373,19.38,73170.0,10.13,-0.33,-1.05,0,*79
1504443757.33,51374,19.38,73168.5,10.15,-0.19,-0.81,0,*4D
1504443758.55,51375,19.38,73170.5,10.17,-0.23,-0.89,0,*4F
1504443759.76,51376,19.38,73172.0,10.15,0.05,-0.57,0,*54
1504443760.96,51377,19.38,73170.0,10.15,0.05,-0.81,0,*5E
1504443762.19,51378,19.38,73172.8,10.15,-0.15,-0.93,0,*4E
1504443763.41,51379,19.38,73170.3,10.15,0.33,-0.29,0,*67
1504443764.64,51380,19.38,73168.3,10.15,0.51,-0.53,0,*68
1504443765.86,51381,19.38,73172.0,10.15,0.59,-0.33,0,*67
1504443767.06,51382,19.38,73172.8,10.17,0.01,-1.35,0,*6C
1504443768.28,51383,19.38,73174.3,10.13,-0.27,-1.67,0,*77
1504443769.5,51384,19.38,73168.3,10.13,-0.81,-2.55,0,*7E
1504443770.69,51385,19.38,73172.8,10.13,-2.43,-4.09,0,*4C
1504443771.96,51386,19.38,73170.5,10.11,-2.07,-3.47,0,*40
1504443773.21,51387,19.38,73174.8,10.15,-1.05,-2.95,0,*4A
1504443774.43,51388,19.38,73174.8,10.11,-2.19,-4.37,0,*41
1504443775.69,51389,19.38,73174.8,10.11,-3.31,-5.03,0,*4D
1504443776.92,51390,19.38,73174.0,10.09,-2.75,-4.21,0,*4C
1504443778.1,51391,19.38,73172.5,10.09,-2.83,-3.87,0,*4F
1504443779.35,51392,19.38,73168.5,10.09,-3.59,-4.73,0,*46
1504443780.55,51393,19.38,73172.5,10.09,-3.35,-4.29,0,*42
1504443781.74,51394,19.38,73170.3,10.09,-2.19,-3.11,0,*46
1504443782.99,51395,19.38,73168.8,10.07,-2.47,-3.39,0,*48
1504443784.27,51396,19.38,73174.3,10.07,-3.63,-4.81,0,*48
1504443785.52,51397,19.38,73174.0,10.07,-4.13,-4.77,0,*40
1504443786.76,51398,19.38,73174.3,10.07,-4.45,-4.69,0,*43
1504443788.01,51399,19.38,73172.5,10.07,-3.43,-3.79,0,*45
1504443789.23,51400,19.38,73174.5,10.05,-2.51,-2.83,0,*46
1504443790.46,51401,19.38,73172.3,10.05,-2.03,-2.43,0,*4C
1504443791.65,51402,19.38,73174.3,10.05,-1.75,-2.19,0,*42
1504443792.88,51403,19.38,73174.3,10.05,-1.29,-1.91,0,*49
1504443794.1,51404,19.38,73172.5,10.05,-0.93,-1.67,0,*77
1504443795.3,51405,19.38,73172.5,10.05,-0.77,-1.75,0,*7F
1504443796.5,51406,19.38,73172.8,10.05,-0.65,-1.79,0,*73
1504443797.69,51407,19.38,73174.8,10.05,-0.53,-1.63,0,*7C
1504443798.89,51408,19.38,73174.8,10.05,-0.37,-1.63,0,*71
1504443800.09,51409,19.38,73168.5,10.05,0.41,-0.69,0,*67
1504443801.3,51410,19.38,73174.3,10.05,0.55,-0.81,0,*6C
1504443802.54,51411,19.38,73172.3,10.07,0.95,-0.41,0,*6F
1504443803.78,51412,19.38,73174.3,10.07,0.59,-0.77,0,*69
1504443805.02,51413,19.38,73176.8,10.07,1.25,-0.19,0,*5A
1504443806.23,51414,19.38,73176.5,10.09,0.91,-0.61,0,*62
1504443807.46,51415,19.38,73174.0,10.09,0.91,-0.85,0,*69
1504443808.65,51416,19.38,73172.0,10.09,-0.37,-2.23,0,*75
1504443809.86,51417,19.38,73176.5,10.09,-0.97,-3.07,0,*79
1504443811.08,51418,19.38,73172.5,10.07,-0.77,-2.87,0,*7F
1504443812.31,51419,19.38,73170.0,10.07,-1.29,-3.27,0,*4F
1504443813.58,51420,19.38,73174.0,10.07,-0.85,-2.71,0,*70
1504443814.81,51421,19.38,73172.3,10.07,-0.41,-2.23,0,*7E
1504443816.04,51422,19.38,73172.0,10.05,-0.69,-2.51,0,*70
1504443817.28,51423,19.38,73172.0,10.05,-0.93,-2.55,0,*70
1504443818.49,51424,19.38,73172.8,10.03,-0.57,-1.91,0,*72
1504443819.69,51425,19.38,73176.0,10.05,-0.19,-1.55,0,*77
1504443820.92,51426,19.38,73176.0,10.05,-1.01,-2.31,0,*4D
1504443822.11,51427,19.38,73176.5,10.03,-0.53,-1.79,0,*73
1504443823.3,51428,19.38,73174.0,10.03,-0.41,-1.51,0,*75
1504443824.49,51429,19.38,73172.8,10.05,-0.19,-1.33,0,*7B
1504443825.68,51430,19.38,73174.3,10.05,-0.29,-1.51,0,*74
1504443826.88,51431,19.38,73174.5,10.05,-0.53,-1.79,0,*72
1504443828.08,51432,19.38,73172.8,10.05,-0.45,-1.75,0,*7A
1504443829.33,51433,19.38,73174.8,10.05,-1.39,-2.67,0,*41
1504443830.56,51434,19.38,73174.3,10.05,-1.01,-2.39,0,*46
1504443831.81,51435,19.38,73176.8,10.05,-1.01,-2.67,0,*4C
1504443833.04,51436,19.38,73174.8,10.05,-0.77,-2.55,0,*7E
1504443834.26,51437,19.38,73174.0,10.05,-1.13,-3.15,0,*49
1504443835.51,51438,19.38,73170.5,10.07,-2.03,-4.05,0,*40
1504443836.72,51439,19.38,73172.5,10.07,-2.39,-4.17,0,*4B
1504443837.95,51440,19.38,73172.8,10.05,-2.75,-4.57,0,*4B
1504443839.21,51441,19.38,73174.0,10.07,-3.39,-5.07,0,*45
1504443840.46,51442,19.38,73172.5,10.05,-3.67,-4.93,0,*43
1504443841.65,51443,19.38,73172.0,10.03,-4.05,-4.99,0,*4D
1504443842.88,51444,19.38,73174.3,10.05,-4.41,-5.11,0,*4D
1504443844.09,51445,19.38,73176.0,10.03,-3.71,-4.49,0,*42
1504443845.32,51446,19.38,73174.8,10.05,-3.03,-3.59,0,*44
1504443846.52,51447,19.38,73174.8,10.05,-2.95,-3.27,0,*42
1504443847.73,51448,19.38,73174.3,10.05,-3.19,-3.27,0,*48
1504443848.95,51449,19.38,73180.5,10.05,-3.59,-3.31,0,*4A
1504443850.17,51450,19.38,73174.3,10.05,-4.17,-3.71,0,*4B
1504443851.41,51451,19.38,73174.3,10.07,-4.13,-3.47,0,*49
1504443852.59,51452,19.38,73172.0,10.09,-3.87,-3.23,0,*4C
1504443853.87,51453,19.38,73172.8,10.07,-4.01,-3.47,0,*48
1504443855.06,51454,19.38,73172.5,10.09,-4.41,-4.09,0,*48
1504443856.28,51455,19.38,73172.5,10.07,-4.65,-3.91,0,*47
1504443857.53,51456,19.38,73176.0,10.07,-4.57,-4.01,0,*4B
1504443858.77,51457,19.38,73172.3,10.07,-4.77,-4.37,0,*4D
1504443860.02,51458,19.38,73172.3,10.07,-4.69,-4.53,0,*4F
1504443861.24,51459,19.38,73168.0,10.07,-4.29,-4.13,0,*4E
1504443862.47,51460,19.38,73174.0,10.07,-4.57,-4.65,0,*4C
1504443863.67,51461,19.38,73168.5,10.05,-4.17,-4.45,0,*49
1504443864.9,51462,19.38,73174.3,10.05,-3.39,-3.59,0,*4B
1504443866.12,51463,19.38,73174.0,10.05,-2.51,-2.79,0,*46
1504443867.34,51464,19.38,73170.8,10.05,-2.43,-2.55,0,*4C
1504443868.56,51465,19.38,73174.3,10.03,-1.79,-2.03,0,*42
1504443869.75,51466,19.38,73174.5,10.03,-2.27,-2.39,0,*40
1504443870.97,51467,19.38,73174.0,10.01,-2.35,-2.31,0,*48
1504443872.2,51468,19.38,73174.0,10.01,-1.43,-1.33,0,*44
1504443873.42,51469,19.38,73172.0,10.01,-1.33,-1.55,0,*42
1504443874.62,51470,19.38,73170.5,10.01,-0.61,-0.49,0,*40
1504443875.83,51471,19.38,73168.3,10.01,-0.49,-0.41,0,*43
1504443877.02,51472,19.38,73172.5,9.99,-0.33,-0.15,0,*75
1504443878.26,51473,19.38,73170.5,10.01,0.41,0.51,0,*48
1504443879.44,51474,19.38,73168.0,9.99,0.59,0.97,0,*75
1504443880.64,51475,19.38,73168.0,9.99,0.51,1.05,0,*46
1504443881.88,51476,19.38,73168.8,10.01,0.29,0.91,0,*4F
1504443883.13,51477,19.38,73172.3,10.01,0.79,1.47,0,*71
1504443884.31,51478,19.38,73170.8,9.99,0.01,0.71,0,*4C
1504443885.51,51479,19.38,73174.3,9.99,-0.33,0.47,0,*54
1504443886.72,51480,19.38,73172.5,9.95,-0.85,-0.15,0,*79
1504443887.92,51481,19.38,73168.5,9.93,-0.37,0.43,0,*59
1504443889.15,51482,19.38,73172.8,9.93,-0.65,0.21,0,*59
1504443890.37,51483,19.38,73172.5,9.89,-0.41,0.33,0,*56
1504443891.57,51484,19.38,73170.0,9.89,-0.29,0.43,0,*58
1504443892.76,51485,19.38,73170.8,9.87,-0.03,0.63,0,*6D
1504443893.98,51486,19.38,73170.3,9.85,-0.03,0.71,0,*6F
1504443895.17,51487,19.38,73168.3,9.83,0.37,1.05,0,*40
1504443896.41,51488,19.38,73174.0,9.81,0.21,0.75,0,*7C
1504443897.57,51489,19.38,73172.8,9.79,0.43,1.01,0,*4C
1504443898.8,51490,19.38,73172.3,9.79,1.13,1.59,0,*7D
1504443900.02,51491,19.38,73170.3,9.79,1.37,1.75,0,*74
1504443901.25,51492,19.38,73170.0,9.79,1.71,2.09,0,*7D
1504443902.46,51493,19.38,73166.0,9.79,2.31,2.81,0,*7B
1504443903.68,51494,19.38,73168.0,9.79,2.85,3.19,0,*73
1504443904.88,51495,19.38,73168.8,9.79,3.03,3.29,0,*7E
1504443906.08,51496,19.38,73168.5,9.79,2.95,3.23,0,*79
1504443907.28,51497,19.38,73168.0,9.79,2.73,2.95,0,*7C
1504443908.51,51498,19.38,73170.3,9.81,3.03,3.29,0,*74
1504443909.73,51499,19.38,73168.0,9.81,2.69,2.95,0,*7E
1504443910.98,51500,19.38,73168.8,9.81,2.59,2.85,0,*7D
1504443912.21,51501,19.38,73168.0,9.81,2.69,2.91,0,*7A
1504443913.46,51502,19.38,73170.8,9.81,2.51,2.73,0,*7E
1504443914.71,51503,19.38,73170.3,9.81,2.25,2.43,0,*7F
1504443915.92,51504,19.38,73170.8,9.79,2.81,2.95,0,*7A
1504443917.14,51505,19.38,73168.3,9.79,2.69,2.85,0,*7C
1504443918.38,51506,19.38,73170.0,9.79,3.15,3.33,0,*79
1504443919.58,51507,19.38,73168.8,9.79,3.33,3.55,0,*7C
1504443920.78,51508,19.38,73168.0,9.79,2.91,3.03,0,*79
1504443922.01,51509,19.38,73170.0,9.79,3.03,3.19,0,*79
1504443923.22,51510,19.38,73170.5,9.79,3.15,3.29,0,*75
1504443924.42,51511,19.38,73170.5,9.79,3.45,3.55,0,*7A
1504443925.64,51512,19.38,73168.0,9.77,3.19,3.29,0,*75
1504443926.85,51513,19.38,73174.0,9.79,3.55,3.41,0,*7C
1504443928.07,51514,19.38,73166.5,9.77,3.37,3.25,0,*73
1504443929.3,51515,19.38,73170.8,9.77,3.63,3.41,0,*71
1504443930.53,51516,19.38,73174.5,9.77,3.11,2.91,0,*7B
1504443931.73,51517,19.38,73170.5,9.77,2.99,2.65,0,*70
1504443932.98,51518,19.38,73172.3,9.73,2.77,2.43,0,*7F
1504443934.21,51519,19.38,73174.0,9.71,3.11,2.85,0,*77
1504443935.41,51520,19.38,73170.8,9.73,3.25,2.99,0,*75
1504443936.64,51521,19.38,73170.3,9.71,3.11,2.77,0,*71
1504443937.87,51522,19.38,73168.3,9.71,3.07,2.85,0,*78
1504443939.07,51523,19.38,73170.0,9.71,2.95,2.85,0,*73
1504443940.29,51524,19.38,73172.5,9.71,2.77,2.73,0,*71
1504443941.51,51525,19.38,73172.0,9.71,2.77,2.55,0,*74
1504443942.72,51526,19.38,73172.3,9.71,2.73,2.55,0,*73
1504443943.93,51527,19.38,73174.3,9.67,2.95,2.81,0,*74
1504443945.15,51528,19.38,73174.0,9.71,2.73,2.55,0,*7D
1504443946.37,51529,19.38,73170.8,9.71,2.55,2.55,0,*78
1504443947.59,51530,19.38,73172.5,9.71,3.33,3.33,0,*70
1504443948.79,51531,19.38,73170.5,9.71,3.29,3.33,0,*7A
1504443950.02,51532,19.38,73174.8,9.71,3.45,3.37,0,*77
1504443951.21,51533,19.38,73174.0,9.71,2.95,2.85,0,*72
1504443952.41,51534,19.38,73174.8,9.71,2.95,2.85,0,*75
1504443953.61,51535,19.38,73174.0,9.73,3.25,2.99,0,*71
1504443954.86,51536,19.38,73174.3,9.69,2.69,2.39,0,*7A
1504443956.11,51537,19.38,73172.5,9.69,2.85,2.39,0,*79
1504443957.36,51538,19.38,73172.0,9.69,2.81,2.47,0,*7B
1504443958.62,51539,19.38,73170.5,9.69,2.51,2.13,0,*76
1504443959.85,51540,19.38,73168.5,9.69,2.35,1.85,0,*76
1504443961.09,51541,19.38,73168.8,9.69,2.73,2.13,0,*79
1504443962.34,51542,19.38,73172.5,9.69,2.39,1.59,0,*79
1504443963.56,51543,19.38,73174.8,9.71,2.01,1.17,0,*70
1504443964.81,51544,19.38,73174.0,9.73,1.51,0.47,0,*47
1504443966.01,51545,19.38,73174.0,9.67,1.75,0.67,0,*47
1504443967.23,51546,19.38,73168.8,9.67,2.13,1.17,0,*71
1504443968.46,51547,19.38,73172.3,9.67,2.51,1.63,0,*75
1504443969.71,51548,19.38,73168.8,9.69,1.85,0.83,0,*41
1504443970.96,51549,19.38,73170.5,9.69,1.63,0.17,0,*45
1504443972.16,51550,19.38,73174.3,9.71,1.33,-0.03,0,*59
1504443973.38,51551,19.38,73170.5,9.71,0.95,-0.27,0,*53
1504443974.6,51552,19.38,73170.5,9.69,1.25,0.01,0,*7A
1504443975.86,51553,19.38,73172.3,9.69,1.13,-0.23,0,*63
1504443977.06,51554,19.38,73170.3,9.67,0.95,-0.07,0,*63
1504443978.31,51555,19.38,73170.0,9.69,1.29,0.33,0,*40
1504443979.53,51556,19.38,73168.8,9.69,1.67,1.05,0,*7D
1504443980.77,51557,19.38,73170.5,9.69,2.13,1.47,0,*7A
1504443982.02,51558,19.38,73174.0,9.69,2.69,2.25,0,*7F
1504443983.23,51559,19.38,73170.3,9.69,2.95,2.61,0,*7D
1504443984.47,51560,19.38,73168.8,9.69,2.85,2.59,0,*7D
1504443985.7,51561,19.38,73170.5,9.67,2.81,2.47,0,*79
1504443986.92,51562,19.38,73170.8,9.69,2.73,2.31,0,*78
1504443988.14,51563,19.38,73170.5,9.69,2.91,2.47,0,*74
1504443989.33,51564,19.38,73168.5,9.67,2.95,2.61,0,*7D
1504443990.58,51565,19.38,73168.0,9.69,2.81,2.47,0,*73
1504443991.78,51566,19.38,73170.5,9.67,3.29,3.03,0,*7C
1504443992.98,51567,19.38,73170.8,9.67,2.95,2.69,0,*76
1504443994.23,51568,19.38,73170.5,9.69,3.03,2.85,0,*7B
1504443995.44,51569,19.38,73170.5,9.67,2.95,2.81,0,*7E
1504443996.67,51570,19.38,73174.8,9.67,2.85,2.51,0,*7A
1504443997.9,51571,19.38,73172.3,9.67,2.81,2.47,0,*78
1504443999.1,51572,19.38,73168.8,9.65,2.65,2.35,0,*76
1504444000.3,51573,19.38,73172.3,9.63,2.31,2.13,0,*74
1504444001.56,51574,19.38,73170.0,9.65,2.47,2.21,0,*75
1504444002.81,51575,19.38,73172.3,9.65,2.55,2.43,0,*73
1504444004.06,51576,19.38,73172.5,9.65,2.69,2.59,0,*74
1504444005.25,51577,19.38,73172.0,9.63,2.65,2.61,0,*74
1504444006.45,51578,19.38,73174.8,9.63,2.61,2.51,0,*7C
1504444007.67,51579,19.38,73170.5,9.63,2.25,2.05,0,*7C
1504444008.9,51580,19.38,73168.5,9.61,2.31,2.25,0,*7F
1504444010.13,51581,19.38,73172.3,9.61,2.39,2.27,0,*74
1504444011.36,51582,19.38,73174.0,9.59,2.13,1.85,0,*7F
1504444012.56,51583,19.38,73168.8,9.59,2.35,2.01,0,*75
1504444013.79,51584,19.38,73172.8,9.59,2.25,1.85,0,*7C
1504444015.01,51585,19.38,73176.3,9.57,2.35,1.97,0,*71
1504444016.21,51586,19.38,73172.5,9.55,2.35,1.85,0,*73
1504444017.44,51587,19.38,73170.0,9.57,2.65,2.17,0,*7D
1504444018.66,51588,19.38,73170.8,9.57,2.77,2.31,0,*75
1504444019.92,51589,19.38,73174.3,9.57,3.07,2.59,0,*7C
1504444021.18,51590,19.38,73174.0,9.57,3.37,2.89,0,*7A
1504444022.41,51591,19.38,73174.5,9.55,3.41,3.15,0,*7C
1504444023.61,51592,19.38,73172.3,9.55,3.15,2.91,0,*73
1504444024.82,51593,19.38,73170.0,9.55,3.41,3.25,0,*7D
1504444026.02,51594,19.38,73172.3,9.55,3.07,2.95,0,*72
1504444027.22,51595,19.38,73174.0,9.55,3.37,3.29,0,*76
1504444028.42,51596,19.38,73168.8,9.55,2.91,2.77,0,*72
1504444029.63,51597,19.38,73172.0,9.55,2.91,2.81,0,*7A
1504444030.85,51598,19.38,73172.0,9.55,3.53,3.41,0,*77
1504444032.08,51599,19.38,73170.3,9.55,3.53,3.41,0,*76
1504444033.31,51600,19.38,73170.5,9.55,3.19,3.15,0,*7A
1504444034.51,51601,19.38,73170.5,9.55,2.95,2.89,0,*7A
1504444035.73,51602,19.38,73174.0,9.53,2.43,2.31,0,*77
1504444036.98,51603,19.38,73174.8,9.49,2.59,2.47,0,*77
1504444038.23,51604,19.38,73172.3,9.49,2.13,1.97,0,*70
1504444039.43,51605,19.38,73168.0,9.53,2.31,2.27,0,*72
1504444040.66,51606,19.38,73172.5,9.45,2.35,2.25,0,*70
1504444041.91,51607,19.38,73172.0,9.45,2.13,1.97,0,*7F
1504444043.16,51608,19.38,73172.3,9.45,2.21,2.09,0,*75
1504444044.41,51609,19.38,73172.0,9.45,2.25,2.21,0,*7A
1504444045.58,51610,19.38,73172.0,9.43,2.35,2.31,0,*74
1504444046.81,51611,19.38,73174.3,9.43,2.47,2.47,0,*71
1504444048.04,51612,19.38,73174.8,9.41,2.73,2.61,0,*73
1504444049.28,51613,19.38,73174.5,9.43,2.59,2.59,0,*73
1504444050.48,51614,19.38,73174.3,9.43,2.55,2.35,0,*72
1504444051.73,51615,19.38,73176.0,9.41,2.09,1.93,0,*77
1504444052.96,51616,19.38,73174.8,9.43,2.21,2.05,0,*70
1504444054.19,51617,19.38,73178.3,9.41,2.27,2.09,0,*79
1504444055.42,51618,19.38,73172.3,9.41,2.61,2.43,0,*7A
1504444056.65,51619,19.38,73176.0,9.41,2.61,2.17,0,*7A
1504444057.9,51620,19.38,73174.0,9.41,2.51,1.89,0,*77
1504444059.16,51621,19.38,73176.5,9.41,2.09,1.55,0,*7A
1504444060.41,51622,19.38,73174.0,9.39,2.17,1.29,0,*72
1504444061.65,51623,19.38,73174.3,9.39,2.39,1.43,0,*73
1504444062.89,51624,19.38,73172.8,9.39,2.69,2.17,0,*73
1504444064.15,51625,19.38,73172.0,9.39,2.17,1.85,0,*73
1504444065.34,51626,19.38,73174.0,9.39,1.41,1.05,0,*78
1504444066.56,51627,19.38,73176.8,9.39,1.75,1.51,0,*7F
1504444067.79,51628,19.38,73172.8,9.37,1.97,1.85,0,*7B
1504444069.04,51629,19.38,73174.8,9.39,1.89,1.85,0,*7B
1504444070.25,51630,19.38,73174.3,9.37,1.89,2.01,0,*72
1504444071.43,51631,19.38,73174.3,9.37,2.27,2.35,0,*73
1504444072.67,51632,19.38,73172.3,9.39,2.25,2.25,0,*7D
1504444073.9,51633,19.38,73176.8,9.37,2.39,2.39,0,*72
1504444075.07,51634,19.38,73172.0,9.37,1.79,1.79,0,*75
1504444076.3,51635,19.38,73174.0,9.39,1.75,1.85,0,*75
1504444077.52,51636,19.38,73176.5,9.37,1.51,1.55,0,*73
1504444078.74,51637,19.38,73172.8,9.37,1.43,1.51,0,*75
1504444079.96,51638,19.38,73172.3,9.37,1.97,1.97,0,*79
1504444081.2,51639,19.38,73174.0,9.35,2.01,1.93,0,*72
1504444082.45,51640,19.38,73172.8,9.35,2.21,2.09,0,*7E
1504444083.7,51641,19.38,73172.8,9.35,2.43,2.25,0,*75
1504444084.92,51642,19.38,73174.3,9.33,2.69,2.59,0,*73
1504444086.14,51643,19.38,73174.0,9.35,2.55,2.35,0,*71
1504444087.35,51644,19.38,73176.5,9.33,2.43,2.35,0,*77
1504444088.55,51645,19.38,73172.8,9.33,3.25,3.03,0,*73
1504444089.77,51646,19.38,73176.8,9.35,3.53,3.25,0,*73
1504444090.98,51647,19.38,73174.0,9.33,3.15,2.95,0,*7C
1504444092.18,51648,19.38,73176.5,9.33,3.37,3.29,0,*75
1504444093.42,51649,19.38,73174.5,9.33,3.41,3.41,0,*7B
1504444094.59,51650,19.38,73174.8,9.33,3.25,3.25,0,*73
1504444095.77,51651,19.38,73178.3,9.33,3.29,3.29,0,*72
1504444097.01,51652,19.38,73178.3,9.33,3.67,3.67,0,*71
1504444098.2,51653,19.38,73174.3,9.33,3.63,3.67,0,*74
1504444099.4,51654,19.38,73174.0,9.33,3.49,3.55,0,*7A
1504444100.6,51655,19.38,73172.3,9.33,3.37,3.55,0,*72
1504444101.79,51656,19.38,73174.8,9.33,3.63,3.79,0,*7E
1504444103.03,51657,19.38,73174.3,9.35,3.75,3.89,0,*71
1504444104.23,51658,19.38,73176.8,9.33,3.55,3.75,0,*79
1504444105.44,51659,19.38,73176.5,9.33,3.75,3.89,0,*79
1504444106.61,51660,19.38,73172.8,9.33,3.85,4.11,0,*7A
1504444107.84,51661,19.38,73178.3,9.33,3.75,3.79,0,*7D
1504444109.04,51662,19.38,73176.8,9.33,3.37,3.29,0,*7D
1504444110.26,51663,19.38,73174.3,9.33,2.55,2.55,0,*73
1504444111.52,51664,19.38,73174.5,9.31,3.03,3.11,0,*75
1504444112.78,51665,19.38,73176.0,9.27,3.23,3.33,0,*71
1504444114.02,51666,19.38,73168.3,9.31,3.45,3.53,0,*73
1504444115.25,51667,19.38,73176.5,9.31,2.65,2.69,0,*79
1504444116.5,51668,19.38,73172.5,9.27,2.51,2.59,0,*75
1504444117.73,51669,19.38,73174.8,9.25,2.01,1.93,0,*76
1504444118.98,51670,19.38,73178.0,9.23,2.47,2.55,0,*73
1504444120.21,51671,19.38,73172.5,9.23,2.91,3.03,0,*7B